Theta_e
323 313 313 311 299 294 290 293 296 297 297 298 301 303 301 301 303 298 318 327 343 347 350 351 352 354 354 353 353 353 353 352 351 349 348 348 345 345 343 341 340 339 339 337 334 333 337 338 341
313 317 312 304 294 288 289 293 296 298 300 302 302 300 301 303 312 316 318 329 344 348 350 350 348 353 354 353 353 353 353 351 350 349 348 347 345 343 341 340 338 337 337 335 332 331 333 336 339
317 314 303 298 291 288 290 294 296 298 299 299 298 302 303 305 312 314 322 329 345 346 349 349 348 352 352 352 352 352 350 350 349 349 347 346 344 342 341 339 336 335 335 332 330 330 332 335 337
308 307 302 294 290 293 293 295 299 299 299 301 300 300 307 316 315 319 327 332 334 343 347 346 348 351 352 350 351 350 350 350 350 348 348 346 344 342 340 337 336 334 333 331 327 328 329 332 334
307 301 294 291 290 293 295 298 299 298 298 297 300 298 302 310 321 324 326 332 332 341 346 347 347 348 349 349 349 349 349 348 347 348 347 346 343 341 339 337 335 334 332 330 326 325 325 327 329
301 297 290 288 290 293 295 297 297 297 298 299 300 298 300 307 317 319 327 329 335 339 343 345 339 343 345 347 347 347 347 346 346 346 346 345 343 341 338 337 335 334 332 330 324 321 321 321 322
297 293 288 290 291 293 296 299 295 296 297 296 300 297 297 301 305 319 321 318 318 328 336 341 342 340 337 341 342 343 345 344 345 345 345 343 341 341 339 337 335 334 332 330 324 318 317 316 317
299 293 292 290 290 292 297 298 299 298 296 300 300 296 294 299 304 313 313 314 312 313 315 319 333 337 339 340 335 337 340 340 341 341 338 335 335 336 334 333 335 334 332 330 325 320 317 316 315
299 291 288 290 291 294 297 296 298 299 298 299 300 298 300 303 305 309 308 307 307 309 308 310 312 329 333 339 337 334 336 336 335 335 331 329 333 333 331 329 333 334 332 329 328 325 318 315 318
295 290 291 293 293 294 297 297 297 295 296 296 297 300 302 302 303 303 302 300 301 302 305 308 309 311 320 333 338 340 338 337 337 336 333 334 332 331 330 327 329 330 329 329 328 326 322 315 306
296 291 294 295 298 299 298 296 298 295 293 296 297 298 300 299 300 300 300 300 301 304 307 310 310 310 310 322 332 339 339 337 336 336 335 336 333 329 328 325 324 321 320 320 320 318 314 311 308
292 297 297 300 300 298 297 298 296 296 296 299 299 299 299 298 298 298 299 300 301 305 307 309 310 311 311 314 330 334 333 332 331 331 332 332 330 330 327 327 323 320 318 316 316 315 314 312 311
295 297 299 300 299 298 300 296 296 295 297 298 299 299 297 297 297 298 300 301 303 305 305 307 310 313 314 315 330 328 326 327 327 327 327 329 330 329 328 326 323 321 319 316 316 312 312 311 312
297 297 298 299 300 299 297 296 296 295 296 296 298 296 295 296 296 296 298 299 303 304 304 308 315 316 317 325 323 321 320 320 321 321 322 323 326 325 324 321 319 317 317 315 313 310 309 308 310
297 293 296 297 298 297 297 294 295 296 296 295 295 294 295 295 296 295 297 300 302 302 304 308 313 314 317 317 317 316 316 317 316 316 317 318 318 317 316 315 313 313 314 313 312 309 309 306 306
292 291 289 296 297 297 296 290 297 296 295 294 294 292 294 295 295 295 297 299 300 301 304 306 310 310 312 312 312 312 312 312 312 312 313 313 313 313 311 310 309 310 310 308 305 306 302 300 299
289 286 289 293 297 295 293 291 294 295 294 293 292 292 293 293 293 294 297 298 299 301 304 304 306 305 306 307 308 308 308 307 307 306 308 309 308 308 306 305 305 305 302 302 302 299 298 295 295
287 287 290 290 294 292 291 291 293 294 294 293 292 292 292 292 293 294 297 298 299 300 303 304 303 303 303 304 303 301 299 299 299 297 299 301 302 302 301 299 298 298 296 296 298 297 295 293 293
291 289 288 291 295 292 291 291 293 294 292 291 291 292 292 292 292 294 297 297 298 300 302 303 302 302 303 302 300 298 295 294 294 294 294 295 296 296 296 294 292 291 290 289 293 296 291 289 291
292 289 289 292 294 292 291 291 293 294 294 294 294 294 293 290 290 293 295 296 297 299 303 304 304 304 304 302 298 295 293 291 290 290 290 291 291 291 291 290 289 288 288 288 287 287 288 287 287
291 290 289 290 291 290 288 288 290 294 295 294 296 296 294 291 290 291 294 294 295 297 303 304 304 303 298 296 294 292 291 289 288 288 288 289 290 289 289 288 288 287 287 286 285 284 285 283 284
289 293 293 292 288 284 288 283 288 291 292 292 295 293 292 290 291 292 294 293 294 297 301 301 300 297 296 296 293 292 289 286 285 286 286 287 288 287 287 287 286 286 285 284 284 284 283 283 281
291 294 292 290 286 284 285 283 286 292 292 295 293 291 291 291 291 292 293 294 295 297 297 297 297 297 295 295 292 289 287 286 286 285 285 285 285 286 286 285 285 284 284 283 282 282 282 282 281
294 292 290 288 286 280 285 285 286 290 293 296 292 290 290 290 290 292 292 291 292 294 294 294 294 293 293 290 289 288 286 285 285 284 284 283 284 283 283 283 283 283 283 282 281 281 281 281 280
293 289 281 279 278 280 286 284 289 292 293 295 293 291 289 290 290 290 288 288 288 291 291 291 291 290 289 288 287 287 286 286 285 284 283 282 282 281 281 281 281 281 282 282 282 281 280 280 279
288 288 282 275 277 279 283 281 287 293 292 291 293 293 290 289 290 288 287 287 287 287 287 287 287 287 288 288 287 287 286 286 285 284 283 282 282 281 281 281 281 281 281 281 281 280 280 279 279
287 285 291 285 274 275 283 286 291 290 290 289 290 290 289 289 287 286 286 286 286 286 286 287 286 287 287 286 286 286 285 285 285 283 283 282 282 282 281 280 280 280 280 280 280 279 278 278 278
290 292 284 283 275 274 281 282 287 287 289 289 288 289 289 289 287 286 286 286 287 287 286 286 286 286 285 285 286 285 284 284 283 283 282 281 281 281 280 279 279 279 279 279 279 277 278 277 277
286 286 287 288 284 277 275 284 290 292 292 289 289 290 289 289 287 286 286 286 287 286 285 285 284 284 284 285 284 284 283 283 282 281 280 280 280 279 279 279 279 279 278 278 277 276 277 276 276
290 290 290 286 281 283 281 286 289 288 290 291 290 290 290 289 288 287 286 285 285 284 284 284 284 284 284 285 284 283 283 282 281 280 279 279 279 279 279 279 278 278 277 277 276 276 276 275 275
Wind_Speed
8 8 1 5 6 6 2 1 4 4 4 1 4 13 10 3 4 5 5 5 13 12 11 10 11 11 11 10 9 9 9 9 11 12 13 17 16 16 16 16 16 16 16 16 16 15 14 15 14
5 5 5 2 6 4 4 4 9 4 5 7 10 5 9 5 5 4 3 2 14 13 11 10 12 13 12 11 9 8 8 8 9 12 15 17 15 15 15 15 14 14 15 15 15 15 15 14 13
3 1 4 5 4 4 4 4 7 4 3 2 4 6 4 3 2 3 3 3 13 11 11 10 12 14 14 12 9 8 8 8 10 12 15 16 15 15 15 15 14 14 15 15 15 14 14 13 13
3 5 5 6 4 7 6 6 8 6 3 5 5 8 5 4 2 4 1 7 9 7 12 12 12 13 14 12 10 7 10 9 9 13 14 16 16 16 15 15 15 15 14 14 14 14 14 14 13
4 3 4 3 2 6 4 3 7 5 5 2 5 5 5 4 5 4 7 7 8 7 8 10 10 12 12 12 10 8 9 9 10 11 13 15 15 16 15 15 15 15 15 15 15 15 15 14 14
5 4 5 2 1 4 3 3 1 3 5 5 7 5 3 2 6 5 8 7 8 7 7 7 9 9 9 10 10 9 9 9 10 12 13 15 14 15 15 16 16 15 15 15 15 15 15 15 15
4 4 3 0 4 3 5 5 2 5 6 2 7 5 2 3 4 7 8 9 10 9 8 5 6 8 9 8 8 9 9 10 11 12 12 13 12 14 14 14 15 15 15 15 15 15 15 15 15
5 5 3 3 3 2 3 3 4 6 1 2 3 6 5 4 2 7 8 8 8 7 7 6 5 6 4 2 6 10 9 8 10 11 12 13 13 11 12 11 13 15 14 15 15 13 13 14 15
3 6 2 4 3 3 3 3 3 2 6 5 5 4 5 5 3 7 6 5 6 6 7 6 6 3 5 3 3 8 11 11 10 9 12 10 6 9 9 6 11 16 14 13 14 13 10 9 10
6 4 2 0 3 2 3 5 4 3 4 4 4 4 5 5 5 8 6 5 4 4 4 5 6 6 6 2 1 3 5 4 5 6 7 5 5 5 6 7 8 7 7 10 12 12 11 7 4
2 3 1 4 3 4 1 2 3 4 3 4 8 9 6 6 7 8 6 5 4 4 4 6 5 4 3 3 0 2 3 3 3 4 6 5 5 5 5 3 3 4 6 3 5 5 4 5 4
3 4 3 1 2 3 1 0 1 4 4 7 9 7 6 8 7 7 6 5 4 6 4 5 6 5 4 2 1 3 6 5 4 4 5 6 5 5 4 3 4 4 3 4 4 3 4 6 5
3 3 1 3 2 2 3 3 3 3 6 8 8 7 8 7 7 6 6 5 5 5 3 4 5 5 3 2 5 5 5 6 5 6 6 4 4 5 5 5 4 3 3 4 4 4 4 5 6
1 2 5 4 5 3 3 4 2 2 8 8 9 8 7 8 7 5 5 4 6 4 3 3 4 3 2 6 8 6 7 6 6 6 6 7 5 5 6 5 5 4 3 4 4 4 4 4 4
1 4 5 8 7 4 5 7 11 6 9 9 8 8 8 7 6 6 5 5 5 2 2 2 4 4 8 9 9 7 7 7 6 6 8 9 8 8 8 5 5 4 4 5 5 4 4 4 4
1 1 2 4 9 4 7 11 6 12 12 10 9 8 8 7 7 6 6 7 5 4 4 5 4 6 7 9 8 7 7 7 7 6 7 9 9 9 8 6 6 4 4 4 4 4 4 4 4
3 4 6 7 6 6 5 8 1 5 7 9 9 9 9 8 7 6 6 7 6 6 6 6 6 6 8 9 9 9 10 8 7 5 7 9 10 9 9 6 6 5 5 4 4 5 4 4 4
6 5 6 6 5 2 6 12 5 9 9 11 10 10 10 10 10 8 8 7 6 6 6 8 6 7 9 8 9 9 9 8 7 6 6 7 6 8 8 7 6 5 5 5 5 6 6 4 4
3 4 5 5 4 6 10 11 11 12 8 9 11 12 12 12 8 8 8 7 7 6 7 8 9 8 7 7 7 6 6 7 7 7 8 8 8 9 9 7 7 7 8 5 5 4 8 10 6
8 8 12 8 6 6 8 15 10 7 12 16 19 18 14 9 9 8 8 8 7 7 7 8 9 9 5 5 6 5 6 7 6 6 9 8 9 9 9 9 8 7 8 10 8 6 2 5 8
7 9 6 9 1 4 5 10 8 10 14 9 17 13 13 17 15 10 9 8 7 8 10 11 9 6 8 11 10 10 9 6 6 6 7 7 9 10 10 10 8 8 7 7 6 5 6 4 5
9 7 6 7 2 7 5 12 7 6 10 11 19 15 16 15 11 12 11 9 8 8 8 8 10 10 10 11 10 11 9 10 2 5 6 7 8 10 10 10 9 8 6 7 6 5 5 4 4
7 2 4 3 3 3 4 8 6 9 13 21 15 13 15 17 17 17 15 12 9 9 9 8 9 9 10 11 9 10 11 9 7 7 10 9 7 8 9 9 8 8 7 6 7 7 8 5 5
7 6 6 5 3 7 9 10 6 12 18 12 5 9 13 14 14 14 12 11 9 7 8 8 9 6 8 10 11 14 17 14 11 9 9 7 6 6 7 8 8 7 7 7 6 6 8 6 6
5 7 2 3 1 10 5 11 19 6 5 9 11 13 12 15 16 16 15 13 10 11 9 8 9 8 9 12 12 13 14 14 13 11 9 10 6 5 6 6 6 6 6 6 6 7 7 5 5
9 10 8 8 6 5 3 11 9 9 7 8 8 16 16 17 15 16 16 13 12 10 10 9 9 9 10 11 12 10 11 8 8 9 9 7 7 7 6 6 6 7 7 6 6 4 5 6 5
6 10 6 2 2 2 7 10 10 5 10 3 7 13 16 17 17 17 15 13 12 11 11 11 10 10 11 12 11 11 9 11 10 10 8 8 8 7 8 7 7 7 7 7 6 5 5 5 4
7 6 4 1 3 7 6 9 14 6 11 8 8 12 13 14 15 15 15 14 13 13 11 12 12 14 11 12 11 11 10 9 9 10 10 9 7 7 8 7 7 7 6 6 7 5 4 5 2
4 5 4 5 5 5 3 12 7 9 9 9 12 14 17 17 16 15 14 13 13 11 11 12 11 12 13 12 9 11 9 9 8 9 9 9 7 7 7 7 7 7 6 6 6 5 5 5 3
2 10 10 8 6 6 3 21 2 1 5 8 11 13 13 15 15 14 14 14 13 13 12 13 12 12 12 12 12 11 10 10 10 10 9 8 9 7 7 7 7 7 6 5 6 5 4 4 3
Wind_Direction
311 299 170 39 53 63 108 341 113 84 46 341 31 90 110 63 85 154 234 73 127 137 137 134 132 126 119 112 105 105 114 118 110 116 104 98 89 85 78 70 64 60 57 54 54 53 51 47 43
317 320 39 76 82 71 292 111 92 104 153 126 113 96 59 64 41 90 49 312 151 139 144 145 146 139 133 126 124 123 118 118 117 119 114 103 97 89 83 76 71 66 62 57 56 55 54 52 51
281 203 80 94 89 136 151 141 139 126 146 166 109 73 73 347 5 97 199 147 144 142 150 155 158 149 143 135 131 134 128 119 120 119 119 111 107 97 90 82 78 73 66 61 59 59 61 59 54
18 9 21 79 137 346 109 164 135 123 14 69 117 70 59 306 103 149 91 117 124 151 159 155 165 154 145 142 143 152 127 118 121 125 126 121 117 110 101 93 85 80 73 67 63 61 60 57 52
40 65 49 88 137 144 98 130 126 146 158 101 111 132 91 20 66 72 66 118 108 114 122 149 157 153 148 144 149 145 130 133 131 131 131 127 122 115 106 98 93 85 77 69 65 62 59 56 50
22 89 52 4 114 105 89 106 66 122 138 105 74 100 126 315 49 38 64 63 91 104 123 125 101 122 139 148 156 161 154 144 135 134 136 132 128 121 113 107 102 94 85 74 69 66 60 54 49
100 75 196 123 167 141 164 127 48 165 112 64 142 84 155 25 332 69 75 61 50 48 62 71 138 134 138 149 160 166 163 154 146 141 134 131 125 126 121 116 109 100 91 84 80 75 68 61 56
96 91 328 303 145 87 194 102 132 77 215 95 63 149 181 218 279 96 70 70 59 55 60 46 46 103 94 177 190 174 166 158 151 146 135 134 131 127 128 129 121 112 100 90 86 82 74 66 59
62 60 351 312 25 146 186 94 23 160 96 57 21 101 158 190 155 100 88 63 47 34 34 28 26 36 103 77 169 198 176 157 155 149 142 135 144 143 144 138 134 129 118 108 101 97 101 79 64
79 93 263 112 336 129 182 117 162 110 125 75 68 72 101 77 101 111 114 95 82 69 40 35 20 8 347 358 70 157 152 148 150 142 148 147 143 135 121 109 98 81 82 109 111 99 95 85 65
30 159 297 357 30 53 92 103 142 129 163 207 185 167 145 109 93 107 112 112 109 85 56 32 14 347 340 307 92 343 99 97 83 127 159 153 132 127 113 102 98 97 75 33 41 68 73 90 100
57 260 113 270 31 21 88 327 112 170 176 139 127 154 136 134 128 124 112 100 85 74 47 9 355 336 294 281 114 76 93 87 79 73 94 136 131 123 124 115 107 98 85 72 61 57 38 42 53
140 314 46 132 141 258 326 251 211 195 165 133 131 126 138 139 140 131 121 109 103 83 31 352 329 309 279 205 101 89 85 78 75 59 52 73 110 119 119 106 97 85 92 86 67 63 56 36 27
191 334 283 229 207 218 201 256 129 214 154 147 148 155 149 150 155 128 122 125 98 95 49 324 22 26 156 93 92 85 77 74 63 54 53 53 81 91 86 82 74 64 62 72 81 59 59 43 32
34 322 306 238 198 221 151 288 231 175 164 162 173 174 164 169 165 156 148 120 132 117 102 62 73 53 95 98 94 92 92 89 77 69 60 64 68 79 83 79 77 59 50 63 57 56 66 55 38
319 62 304 275 156 198 118 270 287 170 158 185 191 191 182 186 173 153 132 129 125 126 117 81 85 76 86 100 100 100 94 91 80 74 74 73 78 84 84 83 75 60 62 66 61 50 46 36 29
331 246 224 303 164 131 161 259 213 173 178 197 203 200 197 187 170 156 138 142 142 147 138 108 100 100 101 97 102 96 90 86 82 78 83 86 86 91 95 90 77 71 61 62 71 48 64 29 6
211 226 256 235 231 184 191 253 231 206 196 212 211 205 197 186 189 166 141 141 143 144 131 116 113 113 108 107 101 91 84 76 72 63 65 79 83 81 88 79 71 59 62 50 60 68 41 28 7
216 222 240 258 233 158 225 240 235 215 225 218 222 216 201 192 162 158 146 146 147 153 137 135 134 134 130 129 117 97 99 90 78 68 56 62 69 67 74 74 67 59 65 56 50 67 51 29 6
238 249 264 297 196 176 253 251 250 210 222 215 212 217 196 160 164 163 150 158 171 161 145 144 144 149 154 124 112 106 110 88 86 80 69 64 67 71 76 77 68 55 67 56 51 44 71 52 23
217 211 233 229 198 263 311 270 235 244 225 217 227 220 190 176 164 164 163 167 165 160 153 149 160 149 119 114 111 106 99 89 86 73 77 64 77 80 84 81 81 70 70 69 54 45 58 88 21
232 214 217 241 261 254 146 283 227 229 251 222 231 199 181 173 166 162 162 168 171 165 153 147 138 137 133 135 131 138 131 128 99 107 99 85 75 82 87 91 89 85 79 73 67 50 59 83 52
222 135 181 210 222 332 276 298 260 214 247 248 232 204 181 175 164 167 167 165 167 160 154 140 134 140 144 141 133 123 109 113 120 112 100 93 85 87 88 88 87 84 83 80 81 68 63 59 79
144 75 40 42 60 267 190 210 231 223 234 249 203 190 174 164 164 162 156 148 156 146 142 139 135 132 136 131 133 135 136 142 137 134 125 118 109 98 85 92 94 92 88 83 81 76 71 71 72
132 109 299 323 307 248 206 221 251 287 208 228 210 190 169 166 163 160 157 160 158 159 156 149 147 139 133 133 135 140 141 141 138 138 135 132 121 100 100 97 89 88 93 93 91 86 81 76 81
191 167 165 215 211 281 354 245 255 230 259 271 234 185 171 168 167 162 160 159 161 164 161 152 151 142 140 138 134 133 135 141 139 145 147 134 127 127 121 108 102 99 95 91 87 83 87 83 78
199 211 174 27 114 12 221 277 284 239 259 264 182 165 176 172 166 164 158 163 166 166 168 158 149 146 144 139 137 141 143 148 153 144 125 126 127 129 126 118 111 104 102 101 101 90 82 81 84
152 165 119 84 202 241 271 264 242 236 251 229 209 181 176 172 166 165 166 168 173 172 164 156 159 156 148 139 143 145 144 142 139 131 129 133 130 127 131 126 116 106 104 105 95 93 96 96 74
146 196 197 142 164 191 280 259 211 230 244 213 203 191 179 177 173 171 172 171 170 166 161 160 156 152 150 147 140 141 141 136 127 131 136 139 134 136 128 122 119 119 110 106 110 127 116 112 131
306 195 176 181 214 233 149 265 176 137 272 209 204 190 181 177 172 173 170 165 166 168 167 166 162 159 159 151 146 147 141 138 138 143 147 143 140 139 133 128 124 123 127 137 145 142 132 161 180